HISPASAT 30W-6

Last updated on Mon Oct 14 2024 00:02:40 GMT+0000 (Coordinated Universal Time)

1 43228U 18023A 24286.68559627 -.00000217 00000+0 00000+0 0 9992 2 43228 0.0190 61.1075 0002604 139.7191 37.7514 1.00267079 24278
UTC large
Height (km)
Speed (km/s)
/
Latitude / Longitude
Inclination (degrees)
Orbital Period (minutes)
Azimuth
Elevation
Range (km)
Doppler Factor

Next 0 passes for location: London (51.5072 / 0.1276)

Sorry there are no passes over London.